This demonstration page uses our WeatherBlox Daily Observations layout. Learn more.

Left ArrowRight Arrow

39.51506, -84.39828

Hourly Observations for May 1, 2021

Temp ( °F °C ) Dew Point ( °F °C ) Humidity (%) Winds ( mph kmh ) Pressure ( in mb ) Visibility ( mi km ) Precip ( " mm )
12:15 am 00:15 Clear 44 6.8 30 -1 58 58 Calm 30.22 1023 10 16 0.00 0.00
12:35 am 00:35 Clear 41 5.1 32 0 70 70 WNW 3 6 30.23 1024 10 16 0.00 0.00
12:55 am 00:55 Clear 41 5.1 34 1.2 76 76 W 5 7 30.24 1024 10 16 0.00 0.00
1:15 am 01:15 Clear 40 4.6 35 1.9 83 83 NNW 3 6 30.24 1024 10 16 0.00 0.00
1:35 am 01:35 Clear 41 5 34 1.3 77 77 N 5 7 30.23 1024 10 16 0.00 0.00
1:55 am 01:55 Clear 37 2.8 34 1 88 88 Calm 30.24 1024 10 16 0.00 0.00
2:15 am 02:15 Clear 37 2.6 31 -0.3 81 81 Calm 30.24 1024 10 16 0.00 0.00
2:35 am 02:35 Clear 38 3.6 36 2 89 89 Calm 30.23 1024 10 16 0.00 0.00
2:55 am 02:55 Clear 35 1.6 34 1 96 96 Calm 30.23 1024 10 16 0.00 0.00
3:15 am 03:15 Clear 35 1.9 34 1.3 96 96 WNW 3 6 30.24 1024 10 16 0.00 0.00
3:35 am 03:35 Clear 35 1.9 35 1.5 97 97 W 5 7 30.24 1024 10 16 0.00 0.00
3:55 am 03:55 Clear 35 1.5 34 1.2 98 98 Calm 30.23 1024 10 16 0.00 0.00
4:15 am 04:15 Clear 35 1.5 35 1.4 99 99 Calm 30.24 1024 10 16 0.00 0.00
4:35 am 04:35 Clear 35 1.8 35 1.6 99 99 Calm 30.24 1024 10 16 0.00 0.00
4:55 am 04:55 Clear 35 1.4 34 1.2 99 99 NNE 5 7 30.23 1024 10 16 0.00 0.00
5:15 am 05:15 Clear 33 0.7 33 0.6 99 99 Calm 30.23 1024 10 16 0.00 0.00
5:35 am 05:35 Clear 32 0 32 -0.2 99 99 Calm 30.24 1024 10 16 0.00 0.00
5:55 am 05:55 Clear 34 1 32 0 93 93 NE 3 6 30.22 1023 10 16 0.00 0.00
6:15 am 06:15 Clear 32 0 32 0 100 100 Calm 30.22 1023 10 16 0.00 0.00
6:35 am 06:35 Clear 32 0 N/A N/A NNE 5 7 30.21 1023 10 16 0.00 0.00
6:55 am 06:55 Sunny 32 0 N/A N/A Calm 30.22 1023 10 16 0.00 0.00
7:15 am 07:15 Sunny 32 0 N/A N/A Calm 30.22 1023 10 16 0.00 0.00
7:35 am 07:35 Sunny 34 1 N/A N/A Calm 30.21 1023 10 16 0.00 0.00
7:55 am 07:55 Sunny 36 2.4 36 2.3 99 99 Calm 30.21 1023 10 16 0.00 0.00
8:15 am 08:15 Sunny 39 3.8 38 3.1 95 95 Calm 30.21 1023 10 16 0.00 0.00
8:35 am 08:35 Sunny 40 4.5 35 1.7 82 82 Calm 30.20 1023 10 16 0.00 0.00
8:55 am 08:55 Sunny 43 6 35 1.8 75 75 Calm 30.20 1023 10 16 0.00 0.00
9:15 am 09:15 Sunny 46 7.6 35 1.8 67 67 SE 7 11 30.19 1022 10 16 0.00 0.00
9:35 am 09:35 Sunny 48 8.7 33 0.6 57 57 SSE 8 13 30.17 1022 10 16 0.00 0.00
9:55 am 09:55 Sunny 50 9.8 35 1.6 57 57 S 10 17 30.17 1022 10 16 0.00 0.00
10:15 am 10:15 Sunny 51 10.4 35 1.4 54 54 SSW 12 19 30.17 1022 10 16 0.00 0.00
10:35 am 10:35 Sunny 51 10.8 35 1.6 53 53 SSW 6 9 30.16 1021 10 16 0.00 0.00
10:55 am 10:55 Sunny 54 12.1 35 1.5 49 49 SW 10 17 30.15 1021 10 16 0.00 0.00
11:15 am 11:15 Sunny 55 12.7 36 2.1 49 49 SW 9 15 30.14 1021 10 16 0.00 0.00
11:35 am 11:35 Sunny 56 13.5 34 1.2 43 43 SW 12 19 30.14 1021 10 16 0.00 0.00
11:55 am 11:55 Sunny 58 14.2 34 1.3 42 42 SW 14 22 30.14 1021 10 16 0.00 0.00
12:15 pm 12:15 Sunny 58 14.7 35 1.6 41 41 SW 13 20 30.13 1020 10 16 0.00 0.00
12:35 pm 12:35 Sunny 59 15.2 34 1.1 39 39 SW 13 20 30.13 1020 10 16 0.00 0.00
12:55 pm 12:55 Sunny 61 15.9 34 0.9 36 36 SW 16 26 30.10 1019 10 16 0.00 0.00
1:15 pm 13:15 Sunny 62 16.7 36 2.4 38 38 SW 14 22 30.09 1019 10 16 0.00 0.00
1:35 pm 13:35 Sunny 63 17.1 34 1.1 34 34 SSW 14 22 30.08 1019 10 16 0.00 0.00
1:55 pm 13:55 Sunny 64 17.6 36 2.2 36 36 SW 14 22 30.07 1018 10 16 0.00 0.00
2:15 pm 14:15 Sunny 65 18.3 35 1.4 32 32 WSW 16 26 30.05 1018 10 16 0.00 0.00
2:35 pm 14:35 Sunny 66 19 35 1.8 32 32 SSW 14 22 30.04 1017 10 16 0.00 0.00
2:55 pm 14:55 Sunny 67 19.2 33 0.4 28 28 SW 17 28 30.03 1017 10 16 0.00 0.00
3:15 pm 15:15 Sunny 68 20 35 1.7 30 30 SW 20 31 30.01 1016 10 16 0.00 0.00
3:35 pm 15:35 Sunny 69 20.3 36 2.2 30 30 SW 18 30 29.99 1016 10 16 0.00 0.00
3:55 pm 15:55 Sunny 69 20.4 37 2.8 31 31 SW 16 26 29.98 1015 10 16 0.00 0.00
4:15 pm 16:15 Sunny 70 20.9 38 3.5 32 32 SW 15 24 29.97 1015 10 16 0.00 0.00
4:35 pm 16:35 Sunny 70 21.1 37 3 30 30 SW 16 26 29.96 1015 10 16 0.00 0.00
4:55 pm 16:55 Sunny 70 21.3 38 3.3 31 31 SW 17 28 29.95 1014 10 16 0.00 0.00
5:15 pm 17:15 Sunny 71 21.4 39 4 32 32 WSW 15 24 29.94 1014 10 16 0.00 0.00
5:35 pm 17:35 Sunny 71 21.5 39 4 32 32 SW 18 30 29.93 1014 10 16 0.00 0.00
5:55 pm 17:55 Sunny 71 21.6 39 4.1 32 32 WSW 16 26 29.92 1013 10 16 0.00 0.00
6:15 pm 18:15 Sunny 71 21.4 39 3.8 32 32 SW 18 30 29.91 1013 10 16 0.00 0.00
6:35 pm 18:35 Sunny 71 21.4 40 4.6 33 33 SW 15 24 29.91 1013 10 16 0.00 0.00
6:55 pm 18:55 Sunny 70 21.3 41 4.8 34 34 SW 15 24 29.90 1013 10 16 0.00 0.00
7:15 pm 19:15 Sunny 70 20.9 40 4.7 35 35 SW 15 24 29.90 1013 10 16 0.00 0.00
7:35 pm 19:35 Sunny 69 20.6 41 4.8 36 36 SW 16 26 29.89 1012 10 16 0.00 0.00
7:55 pm 19:55 Sunny 69 20.3 40 4.6 36 36 SW 16 26 29.89 1012 10 16 0.00 0.00
8:15 pm 20:15 Sunny 67 19.7 40 4.7 37 37 SW 13 20 29.90 1012 10 16 0.00 0.00
8:35 pm 20:35 Clear 66 18.9 40 4.7 39 39 SSW 12 19 29.89 1012 10 16 0.00 0.00
8:55 pm 20:55 Clear 65 18.5 40 4.7 40 40 SW 13 20 29.89 1012 10 16 0.00 0.00
9:15 pm 21:15 Clear 64 17.8 41 4.9 43 43 SW 12 19 29.89 1012 10 16 0.00 0.00
9:35 pm 21:35 Clear 64 17.7 41 5 43 43 SW 12 19 29.89 1012 10 16 0.00 0.00
9:55 pm 21:55 Clear 63 17.4 41 5.2 45 45 SW 12 19 29.89 1012 10 16 0.00 0.00
10:15 pm 22:15 Clear 62 16.5 42 5.6 49 49 SW 9 15 29.89 1012 10 16 0.00 0.00
10:35 pm 22:35 Clear 61 15.9 42 5.8 51 51 SW 8 13 29.90 1013 10 16 0.00 0.00
10:55 pm 22:55 Clear 59 15.2 43 6.2 55 55 SW 8 13 29.91 1013 7 11 0.00 0.00
11:15 pm 23:15 Clear 59 14.9 43 6.3 57 57 SSW 8 13 29.91 1013 10 16 0.00 0.00
11:35 pm 23:35 Clear 58 14.3 45 7 62 62 SW 7 11 29.91 1013 10 16 0.00 0.00
11:55 pm 23:55 Clear 57 13.7 46 7.5 66 66 SW 7 11 29.91 1013 10 16 0.00 0.00

Powered by AerisWeather